Current Version              Previous Version:    01  02  03  04  05  06  07  08  09  10  11  12  13  14  15  16  17  18  19  20  21  22  23  24  25  26  27  28  29  30  
   31  32  33  34  35  36  37  38  39  40  41  42  43  44  45  46  47  48  49  50  51  52  53  54  55  56  57  58  59  60  

[Printable]
928
ASUS44 KLUB 290301
RWRTX
WEST TEXAS WEATHER ROUNDUP
NATIONAL WEATHER SERVICE LUBBOCK TX
1000 PM CDT THU AUG 28 2014

NOTE: "FAIR" INDICATES FEW OR NO CLOUDS BELOW 12,000 FEET WITH NO
SIGNIFICANT WEATHER AND/OR OBSTRUCTIONS TO VISIBILITY.

TXZ004-006>008-010-012-014-016-OKZ002-290400-
TEXAS PANHANDLE/OKLAHOMA PANHANDLE

CITY           SKY/WX    TMP DP  RH WIND       PRES   REMARKS
AMARILLO       PTCLDY    68  62  81 VRB6      29.99R
BORGER         PTCLDY    73  62  68 NE12      29.98R
CANADIAN       CLOUDY    74  70  87 S6        29.94R
DALHART        PTCLDY    68  54  60 N8        30.04R
DUMAS          PTCLDY    68  55  63 NE5       30.01R
GUYMON         MOCLDY    76  50  40 NW8       29.95R
HEREFORD       PTCLDY    71  64  79 MISG      30.00R
PAMPA          MOCLDY    68  63  82 N5        30.02R
PERRYTON       CLOUDY    73  68  86 S9        29.95R
$$

TXZ026-029-035-045-048-290400-
SOUTHERN PANHANDLE/SOUTH PLAINS/ROLLING PLAINS

CITY           SKY/WX    TMP DP  RH WIND       PRES   REMARKS
CHILDRESS      CLOUDY    68  66  93 SE9       29.93R
SEMINOLE       MOCLDY    79  61  53 SE13      29.96R
LUBBOCK        PTCLDY    70  65  84 E8        29.96R
PLAINVIEW      CLEAR     67  65  91 E5        29.95R
SNYDER         CLOUDY    76  66  72 NE15G28   29.95R
$$

TXZ052-054-060>062-072-078-127-140-154-169-290400-
PERMIAN BASIN/CONCHO VALLEY/BIG COUNTRY/EDWARDS PLATEAU

CITY           SKY/WX    TMP DP  RH WIND       PRES   REMARKS
ABILENE        MOCLDY    86  59  39 N28G37    29.92R
BIG SPRING     MOCLDY    76  65  66 E10       29.91F THUNDER
BRADY          CLEAR     84  66  54 SE14      29.90R
BROWNWOOD      CLEAR     86  66  51 SE13G23   29.89R
JUNCTION       CLEAR     86  65  49 SE14      29.89R
MIDLAND        MOCLDY    78  65  63 S8        29.91R
ODESSA         PTCLDY    80  63  55 SE3       29.94R
SAN ANGELO     MOCLDY    86  59  39 SE7       29.88R
SONORA         CLEAR     86  59  39 SE5       29.94R
SWEETWATER     CLOUDY    73  68  84 N14G38    29.98R THUNDER
WINK           PTCLDY    87  58  37 S8        29.88R
$$

TXZ055-058-074-075-080-082-290400-
FAR WEST/SOUTHWEST MOUNTAINS/TRANS PECOS

CITY           SKY/WX    TMP DP  RH WIND       PRES   REMARKS
ALPINE         CLEAR     74  59  59 SW5       30.11R
DRYDEN           N/A     84  64  50 NW5       29.88S
EL PASO        PTCLDY    85  45  24 N3        29.99R
FORT STOCKTON  PTCLDY    82  58  43 S9        29.92R
GUADALUPE PASS CLEAR     79  39  23 W21G30    30.11R
MARFA          CLEAR     73  57  56 CALM      30.10S
PRESIDIO       FAIR      87  59  39 N12G21    29.91R
$$

TXZ014-016-019-021>030-083-290400
TEXAS TECH WEST TEXAS MESONET/TEXAS PANHANDLE/NORTHERN SOUTH PLAINS

CITY           SKY/WX    TMP DP  RH WIND       PRES   REMARKS
ABERNATHY 5ENE   N/A     67  63  86 NE7       29.97R
AMARILLO 9NNE    N/A     68  62  79 SW1       29.97R
AMARILLO 7SSE    N/A     64  59  85 NW6       29.99R
AMHERST 1NE      N/A     70  61  72 E8        29.97R
BOOTLEG 11WNW    N/A     71  59  64 NE10      30.05R
CANADIAN 6E      N/A     70  68  92 S5        29.93R
CAPROCK CYN SP   N/A     67  65  93 NE2       29.96R
CHILDRESS 2NNE   N/A     67  65  94 SE8       29.92R
CLARENDON 2WSW   N/A     65  62  89 E6        29.96R
CLAUDE 12SW      N/A     66  62  87 SE8       29.96S
DIMMITT 2NE      N/A     70  58  66 NE8       30.00R
FLOYDADA 2NNE    N/A     65  64  94 E6        29.97R
FRIONA 2NE       N/A     71  60  68 E10       30.00R
GOODLETT 3W      N/A     69  64  86 E8        29.91R
HART 3N          N/A     67  60  79 NE1       29.99R
HEREFORD 2NW     N/A     72  60  66 E7        30.00R
MCLEAN 1E        N/A     63  61  93 SE7       29.95R
MEMPHIS 1NE      N/A     66  64  94 E3        29.93R
MULESHOE 2SSW    N/A     68  44  42 SW6       29.97R
OLTON 6S         N/A     67  61  79 E7        29.97R
PALO DURO SP     N/A     68  62  81 SE5       29.98R
PAMPA 2E         N/A     67  63  86 SE6       29.98R
PLAINVIEW 1S     N/A     68  65  89 E6        29.96R
SILVERTON 7ESE   N/A     64  61  89 NE5       29.97R
TULIA 2ENE       N/A     69  60  74 E5        29.98R
TURKEY 2WSW      N/A     67  65  91 NE2       29.94R
UMBARGER 3NNE    N/A     70  61  71 SE9       29.99S
$$

TXZ033>036-039>041-045>048-290400
TEXAS TECH WEST TEXAS MESONET/SOUTH PLAINS

CITY           SKY/WX    TMP DP  RH WIND       PRES   REMARKS
AIKEN 3WSW       N/A     66  65  97 E3        29.97R
ANDREWS 2NE      N/A     78  61  56 SE5       29.94R
ANTON 6SSW       N/A     72  62  71 NE10      29.95R
BROWNFIELD 2S    N/A     77  60  55 SE7       29.96R
DENVR CTY 7WNW   N/A     79  54  42 NW2       29.96R
GAIL 2ESE        N/A     80  59  48 S12       29.88R
LAMESA 2SE       N/A     74  63  67 S12       29.93R
LEVELLAND 4S     N/A     75  58  55 SE3       29.95R
LUBBOCK 3WNW     N/A     72  64  75 NE5       29.96R
MORTON 1ENE      N/A     71  51  48 NW6       29.96R
ODONNELL 1N      N/A     79  60  53 S8        29.93R
PLAINS 3N        N/A     77  51  38 NW6       29.96R
RALLS 1SE        N/A     69  65  88 E8        29.97R
REESE CENTER     N/A     74  64  70 E8        29.96R
SEAGRAVES 1SW    N/A     80  59  48 SE7       29.95R
SEMINOLE 2NNE    N/A     80  61  50 SE14      29.94R
SLATON 2NE       N/A     71  65  83 E8        29.96R
SNYDER 3E        N/A     73  67  81 NE17      29.92R
SUNDOWN 8SW      N/A     75  44  32 NW6       29.96R
TAHOKA 3NNE      N/A     80  59  48 S12       29.93R
WOLFFORTH 6SSW   N/A     76  63  63 S7        29.94R
$$

TXZ031-032-036>038-042>044-290400-
TEXAS TECH WEST TEXAS MESONET/ROLLING PLAINS

CITY           SKY/WX    TMP DP  RH WIND       PRES   REMARKS
ASPERMONT 3NE    N/A     67  65  91 NW1       29.97R
FLUVANNA 3WNW    N/A     80  61  52 SE7       29.92R
GRAHAM 5SSW      N/A     81  60  48 S5G20     29.93R
GUTHRIE 10WSW    N/A     68  64  86 SE14      29.88F
HASKELL 1NW    RAIN      69  65  88 N24G38    29.95S
JAYTON 1SSE      N/A     69  65  87 E13       29.89F
KNOX CITY 3NW  LGT RAIN  67  62  84 E23       29.93F
LK A HENRY 1NW   N/A     77  66  69 NE1       29.91R
NORTHFIELD 1S    N/A     66  64  94 E3        29.92R
ODELL 4ENE     LGT RAIN  67  65  91 E15       29.94R
PADUCAH 10SW     N/A     68  66  94 W1        29.91R
POST 1NE         N/A     72  64  76 N5        29.93R
RRING SPRGS 3N   N/A     68  65  92 S5        29.94S
SEYMOUR 3NW    LGT RAIN  70  65  85 NW10      29.94R
SPUR 1W          N/A     71  67  88 N10       29.93R
WEINERT 2NNE   LGT RAIN  67  63  89 N30       29.99R
WHITE RVR 6NE    N/A     69  67  93 N7        29.93S
$$

TXZ052-054-060>062-072-078-127-140-154-169-290400-
TEXAS TECH WEST TEXAS MESONET/PERMIAN BASIN/
CONCHO VALLEY/BIG COUNTRY/EDWARDS PLATEAU

CITY           SKY/WX    TMP DP  RH WIND       PRES   REMARKS
JUNCTION 1SSW    N/A     86  65  50 SE10      29.89R
MERTZON 3NNE     N/A     87  60  40 S3        29.91R
SAN ANGELO 7NW   N/A     88  57  34 SE10      29.88R
STRLNG CT 4WSW   N/A     86  64  48 NW17      29.92R
SWEETWATR 11SW   N/A     87  60  40 SE7       29.92R
WALL 1E          N/A     81  60  48 SE6       29.89R
$$

TXZ055-058-074-075-080-082-290400-
TEXAS TECH WEST TEXAS MESONET/FAR WEST/SOUTHWEST MOUNTAINS/TRANS PECOS

CITY           SKY/WX    TMP DP  RH WIND       PRES   REMARKS
PRSMN GAP BBNP   N/A     78  65  63 E5        29.93R
GUADLPE MTN NP   N/A     77  38  24 NW23      30.11S
$$